Lid_Strength_Index
5 5 5 7 9 6 10 9 11 9 8 6 6 7 6 6 5 5 5 4 3 3 2 2 2 1 1 1 1 1 0 0
6 5 5 6 5 9 9 13 15 11 11 10 8 8 6 6 6 5 4 4 3 3 2 2 1 1 1 1 1 0 0 0
6 7 7 7 8 7 7 9 12 13 10 6 6 7 7 6 5 5 4 4 3 3 2 2 1 1 1 1 1 1 0 0
8 6 6 6 7 7 10 11 9 10 10 6 6 6 6 6 5 4 4 4 3 3 2 2 2 1 2 2 1 1 0 0
10 8 6 7 6 6 7 7 10 12 10 6 6 6 6 6 5 5 4 4 3 3 3 3 2 2 2 2 1 0 0 0
11 9 7 8 8 7 7 10 10 10 9 8 7 7 6 6 5 5 4 4 4 4 4 3 2 2 2 2 1 0 0 1
7 7 7 7 8 8 8 8 10 9 9 7 7 6 5 5 5 5 5 4 4 4 4 2 3 2 1 2 1 0 1 1
8 7 7 8 7 7 7 7 8 8 8 5 5 5 5 5 5 5 5 4 4 4 3 3 3 2 2 2 1 1 1 1
10 8 8 10 8 7 7 7 7 9 7 6 6 6 6 5 5 5 5 4 4 3 3 3 3 2 2 2 1 1 1 1
10 9 14 7 6 6 7 6 6 6 6 6 6 5 4 4 4 5 4 4 3 3 3 2 2 2 2 2 2 1 1 1
11 11 9 8 7 7 7 7 5 6 6 6 5 5 6 4 4 4 4 3 3 3 2 2 2 2 2 2 2 2 2 2
9 12 13 7 5 4 5 9 5 5 6 6 6 9 7 4 3 3 3 3 3 2 2 2 2 1 2 2 2 3 2 2
10 11 9 6 5 5 10 8 5 4 5 5 7 5 4 3 3 3 3 3 2 2 2 2 1 1 2 2 2 1 1 1
9 11 12 5 5 8 5 4 4 4 4 5 4 4 4 4 3 3 3 2 2 2 2 1 1 1 2 2 1 1 1 1
8 9 5 4 4 3 4 4 4 4 4 4 4 4 4 4 3 3 2 2 2 2 2 1 1 1 2 2 1 1 1 1
8 6 6 5 4 3 3 4 3 3 4 3 4 4 4 3 3 3 2 2 2 2 2 2 1 1 1 1 1 1 2 3
7 7 6 4 4 4 4 3 3 3 3 3 3 3 3 3 3 3 2 2 2 1 2 2 1 1 1 1 1 3 4 4
7 6 6 6 4 3 4 4 3 3 3 3 3 3 3 3 3 2 2 2 2 1 2 2 1 1 1 1 1 2 4 2
6 4 4 4 3 3 3 3 3 3 3 3 2 2 2 3 2 3 2 2 2 2 1 1 1 1 1 0 1 2 3 4